Terug naar catalogus

COSMOS 1275 DEB

ActiefPO
NORAD 12705·DEBRIS·🇷🇺 Russia

Gelanceerd Jun 4, 1981 vanaf Plesetsk Cosmodrome

Loading…

Volgende Passages (komende 24 uur)

TLE

VersSource: Space-Track

Epoch: Sep 14, 2026, 03:45 UTC

1 12705U 81053AZ  26257.15682984  .00000987  00000-0  59767-3 0  9998
2 12705  82.8890 155.6761 0026839 308.8165 213.9289 14.05371125286539

Volg COSMOS 1275 DEB in realtime met AllMySat

Download on the App Store